GW0502 Weather Reports


Display with metric or nautical units.
time (UTC)temp
F
wind
direction
speed
MPH
gust
MPH
rain 1hr
in
rain 24hr
in
rain mn
in
humidity
%
barometer
mb
20260505170740 67 220 17.0 20.0 0.00 0.00 0.00 64 1007.2
20260505170238 67 252 10.0 11.0 0.00 0.00 0.00 65 1007.2
20260505165732 67 267 12.0 16.0 0.00 0.00 0.00 65 1007.1
20260505165229 67 229 14.0 17.0 0.00 0.00 0.00 65 1007.2
20260505164724 66 242 10.0 13.0 0.00 0.00 0.00 67 1007.1
20260505164222 66 228 11.0 15.0 0.00 0.00 0.00 67 1007.2
20260505163720 66 272 9.0 11.0 0.00 0.00 0.00 65 1007.2
20260505163218 66 227 10.0 13.0 0.00 0.00 0.00 67 1007.5
20260505162715 66 246 11.0 13.0 0.00 0.00 0.00 66 1007.5
20260505162212 67 229 9.0 11.0 0.00 0.00 0.00 65 1007.5
20260505161709 68 249 15.0 17.0 0.00 0.00 0.00 65 1007.8
20260505161207 68 257 12.0 15.0 0.00 0.00 0.00 65 1007.7
20260505160704 68 232 14.0 18.0 0.00 0.00 0.00 63 1007.9
20260505160201 69 213 8.0 9.0 0.00 0.00 0.00 64 1008.1
20260505153140 67 268 8.0 9.0 0.00 0.00 0.00 62 1008.2
20260505152637 67 221 14.0 15.0 0.00 0.00 0.00 62 1007.8
20260505152133 67 223 9.0 11.0 0.00 0.00 0.00 62 1008.2
20260505151628 67 259 9.0 13.0 0.00 0.00 0.00 61 1008.0
20260505151126 66 240 8.0 10.0 0.00 0.00 0.00 64 1008.1
20260505150622 66 209 14.0 17.0 0.00 0.00 0.00 63 1008.0
20260505150119 67 238 11.0 14.0 0.00 0.00 0.00 63 1008.2
20260505140548 65 218 16.0 17.0 0.00 0.00 0.00 63 1008.4
20260505125001 61 246 5.0 6.0 0.00 0.00 0.00 68 1009.0
20260505124458 60 220 8.0 9.0 0.00 0.00 0.00 71 1009.1
20260505123954 60 213 7.0 7.0 0.00 0.00 0.00 71 1009.0
20260505123450 59 218 7.0 7.0 0.00 0.00 0.00 71 1009.0
20260505122946 59 233 9.0 13.0 0.00 0.00 0.00 70 1009.5
20260505122444 59 216 8.0 9.0 0.00 0.00 0.00 72 1009.5
20260505121941 59 246 5.0 6.0 0.00 0.00 0.00 73 1009.6
20260505121438 58 284 6.0 8.0 0.00 0.00 0.00 73 1009.4
20260505120933 57 225 5.0 6.0 0.00 0.00 0.00 74 1009.5
20260505120430 57 237 7.0 8.0 0.00 0.00 0.00 77 1009.5
20260505115929 56 220 4.0 6.0 0.00 0.00 0.00 76 1009.6
20260505115426 56 238 7.0 8.0 0.00 0.00 0.00 76 1009.4
20260505114924 56 258 3.0 3.0 0.00 0.00 0.00 78 1009.4
20260505114420 55 214 4.0 6.0 0.00 0.00 0.00 77 1009.5
20260505113916 55 261 5.0 6.0 0.00 0.00 0.00 77 1009.6
20260505113413 55 265 4.0 6.0 0.00 0.00 0.00 78 1009.6
20260505112909 55 249 3.0 3.0 0.00 0.00 0.00 79 1009.5
20260505112407 53 249 5.0 5.0 0.00 0.00 0.00 81 1009.6
20260505111902 53 244 5.0 6.0 0.00 0.00 0.00 82 1009.7
20260505111357 52 219 5.0 5.0 0.00 0.00 0.00 84 1009.6
20260505110854 51 206 4.0 5.0 0.00 0.00 0.00 85 1009.4
20260505110351 51 214 5.0 6.0 0.00 0.00 0.00 85 1009.7
20260505101821 50 263 8.0 10.0 0.00 0.00 0.00 83 1009.4
20260505101316 50 225 6.0 7.0 0.00 0.00 0.00 84 1009.2
20260505100813 50 290 4.0 5.0 0.00 0.00 0.00 84 1009.2
20260505100309 49 273 5.0 6.0 0.00 0.00 0.00 84 1009.3
20260505095805 49 271 4.0 6.0 0.00 0.00 0.00 85 1009.0
20260505095304 49 250 4.0 7.0 0.00 0.00 0.00 85 1009.5
20260505094758 49 251 5.0 7.0 0.00 0.00 0.00 85 1009.2
20260505094256 49 220 5.0 6.0 0.00 0.00 0.00 85 1009.1
20260505093751 49 264 3.0 5.0 0.00 0.00 0.00 85 1009.1
20260505093249 49 264 5.0 6.0 0.00 0.00 0.00 84 1009.2
20260505092745 49 285 6.0 8.0 0.00 0.00 0.00 84 1009.4
20260505092244 49 287 6.0 7.0 0.00 0.00 0.00 84 1009.0
20260505091741 49 263 6.0 7.0 0.00 0.00 0.00 84 1009.0
20260505091239 49 274 4.0 5.0 0.00 0.00 0.00 83 1009.1
20260505090736 49 286 4.0 6.0 0.00 0.00 0.00 84 1009.2
20260505090235 49 266 7.0 8.0 0.00 0.00 0.00 84 1009.2
20260505085732 49 299 4.0 5.0 0.00 0.00 0.00 83 1009.1
20260505085230 50 283 4.0 5.0 0.00 0.00 0.00 83 1009.2
20260505084727 50 264 3.0 3.0 0.00 0.00 0.00 82 1009.2
20260505084226 50 248 4.0 5.0 0.00 0.00 0.00 82 1009.2
20260505083722 50 258 5.0 6.0 0.00 0.00 0.00 83 1009.3
20260505083219 50 278 5.0 6.0 0.00 0.00 0.00 82 1009.3
20260505082715 50 277 4.0 7.0 0.00 0.00 0.00 83 1009.3
20260505082213 50 278 3.0 3.0 0.00 0.00 0.00 84 1009.3
20260505081708 50 293 2.0 2.0 0.00 0.00 0.00 83 1009.4
20260505081206 50 284 4.0 5.0 0.00 0.00 0.00 83 1009.2
20260505080703 50 266 2.0 2.0 0.00 0.00 0.00 84 1009.3
20260505080158 50 263 4.0 5.0 0.00 0.00 0.00 83 1009.5
20260505075654 50 250 3.0 3.0 0.00 0.00 0.00 82 1009.2
20260505075151 50 266 3.0 3.0 0.00 0.00 0.00 82 1009.3
20260505074648 50 271 4.0 5.0 0.00 0.00 0.00 81 1009.3
20260505074145 50 275 4.0 5.0 0.00 0.00 0.00 82 1009.2
20260505073643 51 261 4.0 5.0 0.00 0.00 0.00 81 1009.3
20260505073141 51 259 4.0 5.0 0.00 0.00 0.00 81 1009.1
20260505072636 51 237 5.0 6.0 0.00 0.00 0.00 81 1009.4
20260505072133 51 269 5.0 7.0 0.00 0.00 0.00 80 1009.1
20260505071629 51 260 5.0 7.0 0.00 0.00 0.00 81 1009.1
20260505071127 51 289 5.0 8.0 0.00 0.00 0.00 81 1009.0
20260505070624 51 269 5.0 6.0 0.00 0.00 0.00 81 1009.0
20260505070120 51 277 7.0 9.0 0.00 0.00 0.00 81 1009.0
20260505065616 50 247 7.0 8.0 0.00 0.00 0.00 82 1009.1
20260505065113 50 234 6.0 7.0 0.00 0.00 0.00 82 1009.2
20260505064610 50 272 4.0 5.0 0.00 0.00 0.00 82 1009.2
20260505064108 50 271 5.0 7.0 0.00 0.00 0.00 82 1009.1
20260505063605 50 262 5.0 6.0 0.00 0.00 0.00 82 1009.1
20260505063101 50 266 5.0 6.0 0.00 0.00 0.00 82 1009.2
20260505062557 50 244 5.0 6.0 0.00 0.00 0.00 83 1009.1
20260505062055 50 274 3.0 5.0 0.00 0.00 0.00 83 1009.0
20260505061552 50 264 5.0 8.0 0.00 0.00 0.00 83 1009.0
20260505061050 50 263 5.0 6.0 0.00 0.00 0.00 83 1008.9
20260505060547 50 278 5.0 6.0 0.00 0.00 0.00 83 1009.0
20260505060044 50 280 5.0 6.0 0.00 0.00 0.00 83 1009.1
20260505055539 50 264 5.0 7.0 0.00 0.00 0.00 83 1009.0
20260505055036 50 272 6.0 9.0 0.00 0.00 0.00 83 1009.0
20260505054533 50 266 6.0 8.0 0.00 0.00 0.00 82 1009.0
20260505054032 50 275 5.0 5.0 0.00 0.00 0.00 83 1009.1
20260505053528 50 284 4.0 5.0 0.00 0.00 0.00 83 1008.9
20260505053025 50 266 5.0 6.0 0.00 0.00 0.00 83 1009.0
20260505052522 50 278 7.0 8.0 0.00 0.00 0.00 83 1008.9
20260505052020 50 277 8.0 10.0 0.00 0.00 0.00 83 1008.8
20260505051516 50 246 5.0 6.0 0.00 0.00 0.00 83 1008.7
20260505051014 50 262 6.0 8.0 0.00 0.00 0.00 83 1008.8
20260505050512 50 279 5.0 5.0 0.00 0.00 0.00 84 1008.6
20260505041440 46 345 1.0 1.0 0.00 0.00 0.00 95 1008.6
20260505040937 45 275 1.0 2.0 0.00 0.00 0.00 97 1008.7
20260505040434 45 319 1.0 1.0 0.00 0.00 0.00 98 1008.6
20260505035931 45 349 1.0 1.0 0.00 0.02 0.02 98 1008.6
20260505035427 45 9 0.0 0.0 0.00 0.02 0.02 97 1008.7
20260505034925 45 7 0.0 0.0 0.00 0.02 0.02 97 1008.6
20260505034421 45 351 1.0 1.0 0.00 0.02 0.02 96 1008.5
20260505033918 45 14 0.0 0.0 0.00 0.02 0.02 95 1008.7
20260505033415 46 14 0.0 0.0 0.00 0.02 0.02 95 1008.6
20260505032913 46 19 0.0 0.0 0.00 0.02 0.02 94 1008.7
20260505032409 46 24 0.0 0.0 0.00 0.02 0.02 93 1008.6
20260505031906 46 340 1.0 1.0 0.00 0.02 0.02 93 1008.6
20260505031403 46 0 0.0 0.0 0.00 0.02 0.02 94 1008.5
20260505030900 46 4 0.0 0.0 0.00 0.02 0.02 94 1008.6
20260505030356 46 16 0.0 0.0 0.00 0.02 0.02 94 1008.7
20260505025851 46 9 0.0 0.0 0.00 0.02 0.02 94 1008.6
20260505025349 46 5 0.0 0.0 0.00 0.02 0.02 93 1008.7
20260505024848 46 52 1.0 1.0 0.00 0.02 0.02 93 1008.7
20260505024345 46 9 0.0 0.0 0.00 0.02 0.02 94 1008.7
20260505023842 47 20 0.0 0.0 0.00 0.02 0.02 93 1008.6
20260505023339 47 20 0.0 0.0 0.00 0.02 0.02 93 1008.4
20260505022836 46 17 0.0 0.0 0.00 0.02 0.02 93 1008.5
20260505022333 47 32 1.0 1.0 0.00 0.02 0.02 91 1008.4
20260505021831 48 21 1.0 1.0 0.00 0.02 0.02 89 1008.6
20260505021327 49 13 0.0 0.0 0.00 0.02 0.02 88 1008.4
20260505020823 49 11 0.0 0.0 0.00 0.02 0.02 88 1008.6
20260505020318 49 345 1.0 1.0 0.00 0.02 0.02 88 1008.6
20260505015815 49 20 0.0 0.0 0.00 0.02 0.02 87 1008.4
20260505015313 49 17 0.0 0.0 0.00 0.02 0.02 87 1008.6
20260505014810 49 29 0.0 1.0 0.00 0.02 0.02 87 1008.5
20260505014307 49 39 1.0 1.0 0.00 0.02 0.02 86 1008.5
20260505013803 49 39 2.0 2.0 0.00 0.02 0.02 86 1008.5
20260505013301 49 37 1.0 1.0 0.00 0.02 0.02 86 1008.3
20260505012759 49 35 1.0 1.0 0.00 0.02 0.02 86 1008.1
20260505012256 50 25 0.0 1.0 0.00 0.02 0.02 86 1008.5
20260505011752 50 23 0.0 0.0 0.00 0.02 0.02 85 1008.3
20260505011249 51 38 1.0 1.0 0.00 0.02 0.02 82 1008.2
20260505010744 51 13 0.0 0.0 0.00 0.02 0.02 81 1008.2
20260505010241 51 20 0.0 0.0 0.00 0.02 0.02 80 1008.2
20260505005737 52 19 1.0 1.0 0.00 0.02 0.02 78 1008.2
20260505005234 53 356 0.0 1.0 0.00 0.02 0.02 77 1008.2
20260505004732 53 359 0.0 1.0 0.00 0.02 0.02 77 1008.0
20260505004228 53 16 0.0 0.0 0.00 0.02 0.02 75 1007.8
20260505003725 53 20 1.0 1.0 0.00 0.02 0.02 76 1007.6
20260505003223 54 28 0.0 1.0 0.00 0.02 0.02 75 1007.5
20260505002719 54 32 0.0 1.0 0.00 0.02 0.02 74 1007.3
20260505002217 54 42 2.0 2.0 0.00 0.02 0.02 75 1007.2
20260505001714 53 25 2.0 2.0 0.00 0.02 0.02 77 1007.2
20260505001211 54 38 1.0 1.0 0.00 0.02 0.02 74 1007.2
20260505000708 55 198 0.0 0.0 0.00 0.02 0.02 70 1007.2
20260505000206 57 199 0.0 0.0 0.00 0.02 0.02 67 1007.3
20260504235702 58 208 2.0 2.0 0.00 0.02 0.02 64 1007.2
20260504235158 58 345 0.0 0.0 0.00 0.02 0.02 65 1007.2
20260504234656 58 334 1.0 1.0 0.00 0.02 0.02 64 1007.0
20260504234153 59 312 1.0 2.0 0.00 0.02 0.02 63 1006.8
20260504233649 60 327 1.0 1.0 0.00 0.02 0.02 60 1006.9
20260504233145 60 333 2.0 2.0 0.00 0.02 0.02 60 1006.4
20260504232643 60 10 1.0 1.0 0.00 0.02 0.02 60 1006.5
20260504232139 60 347 2.0 2.0 0.00 0.02 0.02 59 1006.5
20260504231636 61 330 2.0 2.0 0.00 0.02 0.02 59 1006.5
20260504231133 60 335 5.0 6.0 0.00 0.02 0.02 58 1006.7
20260504230629 61 342 1.0 1.0 0.00 0.02 0.02 59 1006.7
20260504230128 62 343 1.0 1.0 0.00 0.02 0.02 58 1006.5
20260504225626 62 325 1.0 2.0 0.00 0.02 0.02 56 1006.6
20260504225121 62 277 2.0 2.0 0.00 0.02 0.02 56 1006.5
20260504224618 62 352 1.0 1.0 0.00 0.02 0.02 57 1006.5
20260504224115 62 279 5.0 6.0 0.00 0.02 0.02 57 1006.5
20260504223612 62 301 4.0 5.0 0.00 0.02 0.02 55 1006.4
20260504223108 62 290 3.0 3.0 0.00 0.02 0.02 56 1006.5
20260504222605 63 287 3.0 5.0 0.00 0.02 0.02 56 1006.6
20260504222102 63 284 5.0 6.0 0.00 0.02 0.02 56 1006.4
20260504221559 62 309 3.0 5.0 0.00 0.02 0.02 56 1006.3
20260504221056 63 289 3.0 5.0 0.00 0.02 0.02 56 1006.1
20260504220553 62 313 7.0 9.0 0.00 0.02 0.02 55 1006.3
20260504220050 63 282 7.0 9.0 0.00 0.02 0.02 56 1006.4
20260504215546 62 251 7.0 9.0 0.00 0.02 0.02 55 1006.2
20260504215044 62 270 8.0 10.0 0.00 0.02 0.02 57 1006.4
20260504214539 61 266 8.0 10.0 0.00 0.02 0.02 57 1006.3
20260504214036 62 261 7.0 9.0 0.00 0.02 0.02 58 1006.2
20260504213532 61 281 8.0 11.0 0.00 0.02 0.02 58 1006.1
20260504213030 61 282 3.0 5.0 0.00 0.02 0.02 59 1006.5
20260504212526 61 277 6.0 8.0 0.00 0.02 0.02 59 1006.2
20260504212023 62 284 7.0 8.0 0.00 0.02 0.02 59 1006.3
20260504211520 62 269 8.0 9.0 0.00 0.02 0.02 59 1006.2
20260504211017 61 303 7.0 8.0 0.00 0.02 0.02 60 1006.3
20260504210514 61 263 11.0 15.0 0.00 0.02 0.02 60 1006.3
20260504210011 62 286 6.0 7.0 0.00 0.02 0.02 60 1006.2
20260504205509 62 325 7.0 9.0 0.00 0.02 0.02 59 1005.9
20260504205006 62 308 3.0 3.0 0.00 0.02 0.02 60 1006.2
20260504204504 61 349 5.0 8.0 0.00 0.02 0.02 62 1006.1
20260504204003 61 261 5.0 6.0 0.00 0.02 0.02 61 1006.4
20260504203500 61 267 11.0 15.0 0.00 0.02 0.02 62 1006.0
20260504202956 61 274 8.0 13.0 0.00 0.02 0.02 62 1005.9
20260504202453 61 303 8.0 11.0 0.00 0.02 0.02 63 1005.8
20260504201950 62 294 7.0 8.0 0.00 0.02 0.02 62 1005.8
20260504201447 61 299 9.0 10.0 0.00 0.02 0.02 62 1006.1
20260504200945 62 259 11.0 13.0 0.00 0.02 0.02 61 1006.1
20260504200441 62 270 9.0 15.0 0.00 0.02 0.02 62 1006.0
20260504195938 61 329 9.0 13.0 0.00 0.02 0.02 61 1005.9
20260504195434 61 281 5.0 9.0 0.00 0.02 0.02 62 1005.8
20260504194930 61 342 12.0 17.0 0.00 0.02 0.02 62 1005.9
20260504194426 62 296 4.0 5.0 0.00 0.02 0.02 65 1006.0
20260504193923 60 287 6.0 8.0 0.00 0.02 0.02 67 1006.1
20260504193420 60 296 7.0 10.0 0.00 0.02 0.02 67 1006.3
20260504192919 60 284 8.0 11.0 0.00 0.02 0.02 68 1006.2
20260504192415 59 272 8.0 10.0 0.00 0.02 0.02 69 1006.2
20260504191914 59 278 9.0 13.0 0.00 0.02 0.02 69 1006.2
20260504191412 58 231 7.0 9.0 0.00 0.02 0.02 78 1006.3
20260504190907 58 232 6.0 8.0 0.00 0.02 0.02 82 1006.3
20260504190403 58 216 5.0 6.0 0.00 0.02 0.02 78 1006.3
20260504185900 57 229 4.0 6.0 0.00 0.02 0.02 81 1006.5
20260504185357 57 231 4.0 5.0 0.00 0.02 0.02 81 1006.4
20260504184853 55 280 7.0 8.0 0.00 0.02 0.02 84 1006.4
20260504184348 54 254 4.0 5.0 0.00 0.02 0.02 89 1006.7
20260504183845 53 245 4.0 5.0 0.00 0.02 0.02 89 1006.7
20260504183343 53 278 5.0 6.0 0.00 0.02 0.02 90 1006.9
20260504182840 53 239 7.0 8.0 0.00 0.02 0.02 90 1006.8
20260504182337 52 274 4.0 5.0 0.00 0.02 0.02 89 1006.9
20260504181834 52 296 4.0 5.0 0.00 0.02 0.02 90 1007.1
20260504181331 51 245 3.0 3.0 0.05 0.02 0.02 90 1007.0
20260504180830 51 299 3.0 3.0 0.05 0.02 0.02 91 1007.0
20260504180328 51 305 5.0 6.0 0.05 0.02 0.02 90 1007.1
20260504175826 51 13 4.0 5.0 0.00 0.01 0.01 90 1007.4
20260504175322 52 337 3.0 3.0 0.07 0.01 0.01 89 1007.3
20260504174821 52 17 1.0 1.0 0.07 0.01 0.01 88 1007.2
20260504174318 53 303 4.0 5.0 0.00 0.00 0.00 86 1007.1
20260504173815 53 346 3.0 5.0 0.00 0.00 0.00 82 1007.3
20260504173311 54 289 5.0 7.0 0.00 0.00 0.00 78 1007.0
20260504172809 55 295 8.0 9.0 0.00 0.00 0.00 73 1007.0
20260504172305 56 145 2.0 3.0 0.00 0.00 0.00 70 1006.9
20260504171801 57 317 5.0 8.0 0.00 0.00 0.00 67 1006.7
20260504171258 58 274 11.0 14.0 0.00 0.00 0.00 63 1006.7